星链-34604 (STARLINK-34604)

导读

STARLINK-34604是美国星链计划中的一颗卫星,于2025年7月16日发射升空,归属太空探索技术公司Starlink星座组网。作为低轨互联网星座的组成部分,它主要为全球用户提供高速卫星互联网接入服务,尤其覆盖偏远地区等地面网络难以触及的区域,进一步扩充了星链星座的服务覆盖范围与容量。

基本信息
目录编号:
64801
目录名称:
STARLINK-34604
国际标识:
2025-150M
轨道中心:
EARTH
卫星名称:
星链-34604
卫星全名:
星链-34604 (STARLINK-34604)
卫星状态:
在轨 (已飞行415 天)
发射日期:
2025-07-16 UTC
国别 :
美国 (US)
星等 :
--
轨道信息
数据来源 国际轨道数据
星历时间: 2026-09-04T12:28:37+0800
5小时前
查看轨道信息
半长轴: 6950.129km
偏心率: 0.0002773
轨道倾角: 70.002°
近地点辐角 266.576°
升交点赤经 44.411°
平近点角 93.508°
近地点: 570.064km
远地点: 573.92km
周期: 96.106分钟
每日圈数: 14.983508
详细信息
固有亮度:
5
最大亮度:
2.5
卫星平台:
Starlink V1.0
覆盖范围:
全球
运营商:
太空探索技术公司
运营商所在国:
美国
制造商(研发单位):
太空探索技术公司
制造商所在国:
美国
使用方式:
暂无
卫星简介
Starlink 计划是 SpaceX 推出的全球卫星互联网项目,通过发射低轨道卫星,为全球尤其是偏远地区提供高速、低延迟的互联网服务。自 2019 年起,Starlink 已部署数千颗卫星,旨在缩小全球数字鸿沟,推动互联网普及。该项目还为军事、航空等行业提供通信支持,带来广泛经济效益。
2D轨道图
3D轨道图
轨道高度分析图
轨道倾角分析图
轨道综合分析图
查看轨道综合分析图